Погода в Нерюнгри

Погода в Нерюнгри : погода сейчас, прогноз погоды и архив. Всё, что Вы хотите узнать о погоде в Нерюнгри!

Хотите узнать прогноз погоды в Нерюнгри? Тогда Вам сюда: Погода в Нерюнгри

Поиск расширенной информации на нашем сайте:

Другие новости

Новости СМИ2

Главная страница сайта

Новости сайта

03.07.2017

Напоминаем, что на нашем специализированном сайте Метеоцентр.Азия вы можете получить высокодетализированные автоматические прогнозы погоды по пунктам России, СНГ и мира в авиационном формате (включающие направление и скорость ветра, видимость, явления погоды, количество и форму облачности, нижнюю и верхнюю границу облачности).

Рекомендуем: Договор денежного займа между физическими лицами www.dengiyuga.ru.

Погода в Нерюнгри - сегодня

Время (UTC), дата Ветер
(°,м/с) 
Видим.   Явления Облачность Т
(°С)
Тd
(°С)
f(%) Тe
(°С)
Pmin
(гПа)
dP
(гПа)
Po
(мм)
O2
(г/м3)
Тmin Tmax R s Состояние
почвы
21 19.07.17 330 (СЗ) 20000 м    10/4 600 м кучево-дожд., верхняя 
[Cb cap|Ci fib]
+11.3 +4.4 62 +11  1005.9  0.9  681  263           
00 20.07.17 330 (СЗ) 20000 м    10/4 600 м кучево-дожд., верхняя 
[Cb cap|Ci fib]
+15 +5.3 52 +15  1009.4  0.7  682  259  +10.8        влажная 
03 20.07.17 330 (СЗ) 20000 м    10/4 600 м кучево-дожд., средняя, верхняя 
[Cb cap|Ac trans|Ci fib]
+18.5 +6.5 45 +19  1004.3  0.1  682  256           
06 20.07.17 360 (С) 20000 м  {ливн. осадки}  8/6 750 м кучево-дожд., средняя 
[Cb cap|Ac trans]
+19.9 +4.7 37 +21  1003.1  -0.7  681  255           
09 20.07.17 360 (С) 20000 м  в посл. час ливневой дождь  8/6 660 м кучево-дожд., верхняя 
[Cb cap|Ci fib]
+15.9 +10.4 70 +20  1005.5  1.1  682  258           
12 20.07.17 260 (З) 20000 м  в посл. час ливневой дождь  8/5 600 м кучево-дожд., верхняя 
[Cb cap|Ci fib]
+11 +10.2 95 +14  1008.3  683  263    +21     
15 20.07.17 300 (СЗ) 20000 м    4/3 600 м кучево-дожд., верхняя 
[Cb cap|Ci fib]
+10.5 +9.7 95 +14  1009.1  0.6  683  263           
18 20.07.17 290 (З) 20000 м  туман на расстоянии{ливн. осадки}  8/3 600 м кучево-дожд., верхняя 
[Cb cap|Ci fib]
+9.7 +9.1 96 +13  1009.9  0.3  684  264           
21 20.07.17 тихо ()   0500 м  туман  ?/?  
+7.6 +7.6 100 +8  1011.6  0.9  684  267           
00 21.07.17 нст () 0500 м  туман  ?/?  
+10.6 +10.4 99 +16  1011.2  0.7  685  264  +7.5        мокрая 
03 21.07.17 нст () 20000 м  {туман}  8/5 600 м кучево-дожд., верхняя 
[Cb cap|Ci fib]
+16.1 +10 67 +20  1008.6  -0.7  684  258           
06 21.07.17 340 (С) 20000 м  {туман}  10/6 930 м кучево-дожд., верхняя 
[Cb cap|Ci fib]
+18.2 +10.8 62 +22  1007.1  -0.7  684  256           
09 21.07.17 нст () 2{10}  20000 м  {ливн. осадки}  8/5 600 м кучево-дожд., верхняя 
[Cb cap|Ci fib]
+17.6 +9 57 +20  1006.6  -0.6  683  257           
12 21.07.17 170 (Ю) 20000 м  в посл. час ливневой дождь  9/4 600 м кучево-дожд., средняя, верхняя 
[Cb cap|Ac trans|Ci fib]
+15.3 +11.2 77 +22  1007.5  0.2  684  259    +20.3  0.1     
15 21.07.17 тихо ()   20000 м  {гроза, ливн. осадки}  5/3 600 м кучево-дожд., верхняя 
[Cb cap|Ci fib]
+11.1 +10.3 95 +15  1008.6  -0.4  683  262           
18 21.07.17 нст () 0500 м  туман{гроза, ливн. осадки}  ?/?  
+8.8 +8.4 97 +11  1008.7  -0.7  683  265           
21 21.07.17 нст () 0500 м  туман  ?/?  
+7.8 +7.8 100 +9  1009.1  683  266           
00 22.07.17 нст () 20000 м  туман на расстоянии  10/8 930 м верхняя 
[Sc|Ci fib]
+11.7 +11.1 96 +18  1007.3  -0.2  683  261  +7.2    0.5    влажная 
03 22.07.17 350 (С) 20000 м  слаб. ливневой дождь  10/10 180 м кучево-дожд. 
[Cb cap]
+13.1 +12.2 94 +20  1006.2  -0.5  682  260           
06 22.07.17 340 (С) 20000 м  {ливн. осадки}  10/8 420 м кучево-дожд., средняя 
[Cb cap|Ac trans]
+13.5 +10.8 84 +18  1006.2  682  260           
09 22.07.17 010 (С) 20000 м  {ливн. осадки}  10/8 500 м кучево-дожд., средняя 
[Cb cap|Ac trans]
+11 +7.9 81 +10  1008.5  1.3  683  263           
12 22.07.17 350 (С) 20000 м  в посл. час ливневой дождь  10/8 570 м кучево-дожд., средняя 
[Cb cap|Ac trans]
+8.6 +7.3 92 +8  1010.9  1.4  684  266         
15 22.07.17 360 (С) 20000 м  слаб. ливневой дождь  10/10 480 м кучево-дожд. 
[Cb cap]
+7.8 +6.7 93 +8  1011.3  684  267           
18 22.07.17 тихо ()   20000 м  слаб. ливневой дождь  10/10 180 м кучево-дожд. 
[Cb cap]
+6.9 +5.8 93 +7  1011.4  -0.3  684  268           
21 22.07.17 тихо ()   20000 м  туман на расстоянии{ливн. осадки}  9/4 600 м кучево-дожд., средняя 
[Cb cap|Ac trans]
+6.7 +5.1 90 +7  1011.4  -0.1  684  268           
Время (UTC), дата Ветер
(°,м/с) 
Видим.   Явления Облачность Т
(°С)
Тd
(°С)
f(%) Тe
(°С)
Pmin
(гПа)
dP
(гПа)
Po
(мм)
O2
(г/м3)
Тmin Tmax R s Состояние
почвы

Для получения пояснительной информации подведите курсор к названию столбца.

ПОГОДА в Нерюнгри - архив

Всё, что Вы хотите узнать о погоде в Нерюнгри - удобно и подробно!

Выберите нужную дату (начиная с 1 января 2015* года) и нажмите кнопку "Найти".
Будут отображены архивные сводки погоды по пункту Нерюнгри, начиная с указанной даты.


Отображать данные в формате CSV (для использования в таблицах Excel)


Внимание! Наш архив погоды предназначен исключительно для личного некоммерческого использования в познавательных целях. Если Вам необходимы официальные справки о состоянии погоды (для производственных, юридических, коммерческих и т.п. целей), обращайтесь в органы Росгидромета.

*Примечание: данная дата относится к архиву по метеостанциям СССР (Россия, СНГ, Балтия).
Архив по метеостанциям Зарубежной Европы и Азии (кроме Китая) хранится 10 дней, по другим регионам земного шара (Китай, Африка, Америка, Австралия, Океания) - 1 день.

Нерюнгри - район местоположения метеостанции


Название, широта, долгота, высота метеостанции:
Нерюнгри (Чульман) 56.8°ш. 124.9°д. 858 м над ур. моря [Российская Федерация]

Дополнительная информация

В oтличие oт бoльшинства пoгoдных сайтoв мы публикуем пoдрoбную метеoинфoрмацию в детальнoм прoфессиoнальнoм фoрмате.

Характеристики температуры и влажнoсти вoздуха измеряются на высoте 2 м в тени вдали oт зданий и деревьев.
Скoрoсть ветра измеряется на высoте 10 м (на урoвне рoста челoвека скoрoсть ветра ниже в 1.5-2 раза). Если метеoстанция нахoдится в гoрoде или в лесу, тo скoрoсть ветра занижена на 2-4 м/с пo сравнению с oткрытым местoм. Скoрoсть ветра над акватoриями крупных рек и oзёр, а также на вершинах хoлмoв на 2-5 м/с выше, чем в oбычных услoвиях.
Атмoсфернoе давление в разных тoчках местнoсти мoжет значительнo oтличаться oт давления на метеoстанции, в зависимoсти oт услoвий рельефа (при пoдъёме на 10 м давление пoнижается примернo на 1 мм рт.ст.).